TimeCDT,TemperatureF,Dew PointF,Humidity,Sea Level PressureIn,VisibilityMPH,Wind Direction,Wind SpeedMPH,Gust SpeedMPH,PrecipitationIn,Events,Conditions,WindDirDegrees,DateUTC
12:15 AM,77.0,77.0,100,29.92,10.0,South,6.9,-,0.00,,Clear,170,2013-07-22 05:15:00
12:35 AM,77.0,77.0,100,29.93,10.0,South,6.9,-,0.00,,Clear,190,2013-07-22 05:35:00
12:55 AM,77.0,77.0,100,29.92,10.0,South,8.1,-,0.00,,Clear,180,2013-07-22 05:55:00
1:15 AM,77.0,77.0,100,29.92,10.0,South,9.2,-,0.00,,Clear,180,2013-07-22 06:15:00
1:35 AM,77.0,77.0,100,29.92,9.0,South,10.4,-,0.00,,Clear,190,2013-07-22 06:35:00
1:55 AM,75.2,75.2,100,29.92,8.0,South,10.4,-,0.00,,Clear,190,2013-07-22 06:55:00
2:15 AM,77.0,75.2,94,29.91,10.0,South,12.7,-,0.00,,Partly Cloudy,190,2013-07-22 07:15:00
2:35 AM,75.2,75.2,100,29.90,10.0,South,12.7,-,0.00,,Clear,190,2013-07-22 07:35:00
2:55 AM,75.2,75.2,100,29.89,10.0,South,15.0,20.7,0.00,,Clear,190,2013-07-22 07:55:00
3:15 AM,75.2,75.2,100,29.89,8.0,SSW,15.0,24.2,0.00,,Mostly Cloudy,200,2013-07-22 08:15:00
3:35 AM,75.2,75.2,100,29.90,10.0,SSW,13.8,18.4,0.00,,Scattered Clouds,210,2013-07-22 08:35:00
3:55 AM,75.2,75.2,100,29.91,8.0,SSW,11.5,18.4,0.00,,Partly Cloudy,210,2013-07-22 08:55:00
4:15 AM,75.2,75.2,100,29.91,8.0,SSW,12.7,-,0.00,,Scattered Clouds,200,2013-07-22 09:15:00
4:35 AM,75.2,75.2,100,29.90,9.0,SSW,12.7,-,0.00,,Partly Cloudy,200,2013-07-22 09:35:00
4:55 AM,75.2,75.2,100,29.91,10.0,SSW,12.7,-,0.00,,Mostly Cloudy,210,2013-07-22 09:55:00
5:15 AM,75.2,75.2,100,29.91,10.0,SSW,10.4,18.4,0.00,,Overcast,200,2013-07-22 10:15:00
5:35 AM,75.2,75.2,100,29.90,10.0,SSW,15.0,20.7,0.00,,Mostly Cloudy,200,2013-07-22 10:35:00
5:55 AM,75.2,75.2,100,29.90,10.0,SSW,12.7,-,0.00,,Mostly Cloudy,200,2013-07-22 10:55:00
6:15 AM,75.2,75.2,100,29.90,8.0,SSW,15.0,-,0.00,,Mostly Cloudy,200,2013-07-22 11:15:00
6:35 AM,75.2,75.2,100,29.90,10.0,SSW,13.8,-,0.00,,Overcast,210,2013-07-22 11:35:00
6:50 AM,75.2,75.2,100,29.92,10.0,WSW,11.5,-,N/A,,Overcast,240,2013-07-22 11:50:00
6:55 AM,75.2,75.2,100,29.90,10.0,SSW,16.1,20.7,0.00,,Overcast,210,2013-07-22 11:55:00
7:50 AM,75.2,75.2,100,29.93,10.0,SSW,11.5,-,N/A,,Overcast,210,2013-07-22 12:50:00
8:50 AM,77.0,77.0,100,29.96,7.0,SW,9.2,-,N/A,Thunderstorm,Thunderstorm,220,2013-07-22 13:50:00
9:15 AM,73.4,71.6,94,29.99,1.0,NE,11.5,19.6,N/A,Rain-Thunderstorm,Heavy Thunderstorms and Rain,40,2013-07-22 14:15:00
9:50 AM,69.8,69.8,100,29.98,1.0,SW,8.1,20.7,N/A,Rain-Thunderstorm,Heavy Thunderstorms and Rain,230,2013-07-22 14:50:00
10:50 AM,69.8,-9999,N/A,29.98,7.0,SE,5.8,-,N/A,Rain,Light Rain,140,2013-07-22 15:50:00
11:50 AM,71.6,-9999,N/A,30.00,10.0,SSE,8.1,-,N/A,,Overcast,150,2013-07-22 16:50:00
12:50 PM,71.6,-9999,N/A,29.96,10.0,South,9.2,-,N/A,,Overcast,180,2013-07-22 17:50:00
1:50 PM,71.6,-9999,N/A,29.96,8.0,WSW,10.4,-,N/A,,Mostly Cloudy,240,2013-07-22 18:50:00
2:25 PM,77.0,77.0,100,29.95,10.0,WSW,10.4,-,N/A,,Mostly Cloudy,240,2013-07-22 19:25:00
2:55 PM,80.6,78.8,94,29.94,10.0,SW,11.5,-,N/A,,Mostly Cloudy,220,2013-07-22 19:55:00
3:55 PM,82.4,75.2,79,29.92,10.0,SW,11.5,-,N/A,,Mostly Cloudy,220,2013-07-22 20:55:00
4:50 PM,84.2,73.4,70,29.90,10.0,WSW,11.5,-,N/A,,Mostly Cloudy,240,2013-07-22 21:50:00
5:50 PM,82.4,73.4,74,29.92,10.0,West,4.6,-,N/A,,Mostly Cloudy,270,2013-07-22 22:50:00
6:50 PM,80.6,75.2,84,29.91,10.0,SW,6.9,-,N/A,,Mostly Cloudy,230,2013-07-22 23:50:00
7:50 PM,78.8,78.8,100,29.90,10.0,SW,6.9,-,N/A,,Mostly Cloudy,230,2013-07-23 00:50:00
9:35 PM,75.2,75.2,100,29.92,8.0,South,5.8,-,0.00,,Scattered Clouds,180,2013-07-23 02:35:00
9:55 PM,75.2,75.2,100,29.92,10.0,South,4.6,-,0.00,,Partly Cloudy,180,2013-07-23 02:55:00
10:15 PM,75.2,75.2,100,29.92,10.0,South,5.8,-,0.00,,Partly Cloudy,180,2013-07-23 03:15:00
10:35 PM,73.4,73.4,100,29.92,10.0,SSE,5.8,-,0.00,,Clear,160,2013-07-23 03:35:00
10:55 PM,75.2,75.2,100,29.92,10.0,South,4.6,-,0.00,,Clear,170,2013-07-23 03:55:00
11:15 PM,75.2,75.2,100,29.92,10.0,South,5.8,-,0.00,,Clear,190,2013-07-23 04:15:00
11:35 PM,73.4,73.4,100,29.92,9.0,South,5.8,-,0.00,,Clear,180,2013-07-23 04:35:00
11:55 PM,75.2,75.2,100,29.93,9.0,South,5.8,-,0.00,,Scattered Clouds,190,2013-07-23 04:55:00